Location: Góry Miechowskie
(50.3599°N, 20.1803°E)
Time: 06:28:41
(UTC+00:00)

Cosmos 1461 - Pass Details

Date: 16 September 2024
Orbit: 489 x 565 km, 65.0° (Epoch: 12 October)

Event Time Altitude Azimuth Distance (km) Brightness Sun altitude
Exits shadow 01:13:35 14° 342° (NNW) 1,439 5.2 -27.1°
Drops below altitude 10° 01:15:25 10° 11° (NNE) 1,695 6.0 -26.9°
Sets 01:18:25 0° 37° (NE) 2,590 7.5 -26.5°
